TimeEDT,TemperatureF,Dew PointF,Humidity,Sea Level PressureIn,VisibilityMPH,Wind Direction,Wind SpeedMPH,Gust SpeedMPH,PrecipitationIn,Events,Conditions,WindDirDegrees,DateUTC
12:14 AM,36.7,27.7,70,30.44,10.0,NNE,5.8,-,N/A,,Overcast,30,2013-10-29 04:14:00
12:33 AM,36.7,27.7,70,30.44,10.0,NE,3.5,-,N/A,,Overcast,40,2013-10-29 04:33:00
12:54 AM,36.5,27.5,70,30.43,10.0,NNE,3.5,-,N/A,,Overcast,30,2013-10-29 04:54:00
1:14 AM,36.1,27.1,70,30.44,10.0,Calm,Calm,-,N/A,,Overcast,0,2013-10-29 05:14:00
1:33 AM,35.8,27.3,71,30.44,10.0,NNE,3.5,-,N/A,,Overcast,30,2013-10-29 05:33:00
1:54 AM,35.6,27.3,72,30.43,10.0,NE,3.5,-,N/A,,Overcast,40,2013-10-29 05:54:00
2:14 AM,35.4,27.1,72,30.44,10.0,Calm,Calm,-,N/A,,Overcast,0,2013-10-29 06:14:00
2:33 AM,35.2,27.1,72,30.44,10.0,NNE,4.6,-,N/A,,Overcast,30,2013-10-29 06:33:00
2:54 AM,34.9,27.0,73,30.44,10.0,NNE,3.5,-,N/A,,Overcast,30,2013-10-29 06:54:00
3:14 AM,34.9,27.1,73,30.44,10.0,NNE,3.5,-,N/A,,Overcast,30,2013-10-29 07:14:00
3:33 AM,33.8,26.6,75,30.44,10.0,NNE,3.5,-,N/A,,Overcast,30,2013-10-29 07:33:00
3:54 AM,33.1,26.6,77,30.44,10.0,Calm,Calm,-,N/A,,Overcast,0,2013-10-29 07:54:00
4:14 AM,32.9,26.4,77,30.44,10.0,Calm,Calm,-,N/A,,Overcast,0,2013-10-29 08:14:00
4:33 AM,32.0,26.2,79,30.44,10.0,Calm,Calm,-,N/A,,Mostly Cloudy,0,2013-10-29 08:33:00
4:54 AM,32.0,26.4,80,30.45,10.0,Calm,Calm,-,N/A,,Overcast,0,2013-10-29 08:54:00
5:14 AM,31.6,25.7,79,30.44,10.0,Calm,Calm,-,N/A,,Scattered Clouds,0,2013-10-29 09:14:00
5:33 AM,30.9,26.1,82,30.44,10.0,Calm,Calm,-,N/A,,Mostly Cloudy,0,2013-10-29 09:33:00
5:54 AM,31.6,26.6,82,30.45,10.0,Calm,Calm,-,N/A,,Overcast,0,2013-10-29 09:54:00
6:13 AM,30.9,26.1,82,30.45,10.0,Calm,Calm,-,N/A,,Overcast,0,2013-10-29 10:13:00
6:34 AM,30.2,26.6,86,30.45,10.0,Calm,Calm,-,N/A,,Overcast,0,2013-10-29 10:34:00
6:53 AM,30.9,26.2,83,30.45,10.0,Calm,Calm,-,N/A,,Overcast,0,2013-10-29 10:53:00
7:14 AM,30.9,25.7,81,30.45,10.0,Calm,Calm,-,N/A,,Overcast,0,2013-10-29 11:14:00
7:34 AM,30.9,25.5,80,30.44,10.0,Calm,Calm,-,N/A,,Overcast,0,2013-10-29 11:34:00
7:53 AM,30.7,25.2,80,30.44,10.0,Calm,Calm,-,N/A,,Overcast,0,2013-10-29 11:53:00
8:06 AM,30.7,25.2,80,30.44,10.0,Calm,Calm,-,N/A,,Overcast,0,2013-10-29 12:06:00
8:33 AM,30.9,24.8,78,30.45,10.0,Calm,Calm,-,N/A,,Overcast,0,2013-10-29 12:33:00
8:54 AM,31.3,25.3,79,30.45,10.0,NNE,3.5,-,N/A,,Overcast,20,2013-10-29 12:54:00
9:14 AM,32.2,25.5,76,30.45,10.0,NE,3.5,-,N/A,,Overcast,40,2013-10-29 13:14:00
9:33 AM,32.9,25.9,75,30.45,10.0,NE,3.5,-,N/A,,Overcast,40,2013-10-29 13:33:00
9:54 AM,34.0,26.4,74,30.46,10.0,NNE,4.6,-,N/A,,Overcast,20,2013-10-29 13:54:00
10:14 AM,34.9,26.6,72,30.47,10.0,NNE,4.6,-,N/A,,Overcast,30,2013-10-29 14:14:00
10:33 AM,35.8,27.3,71,30.46,10.0,NE,3.5,-,N/A,,Overcast,50,2013-10-29 14:33:00
10:54 AM,36.7,28.2,71,30.46,10.0,NNE,3.5,-,N/A,,Overcast,20,2013-10-29 14:54:00
11:14 AM,37.4,28.9,71,30.45,10.0,Calm,Calm,-,N/A,,Overcast,0,2013-10-29 15:14:00
11:33 AM,38.5,30.6,73,30.45,10.0,ENE,4.6,-,N/A,,Overcast,70,2013-10-29 15:33:00
11:54 AM,39.4,31.5,73,30.44,10.0,ENE,5.8,-,N/A,,Overcast,60,2013-10-29 15:54:00
12:13 PM,40.3,32.0,72,30.44,10.0,ENE,4.6,-,N/A,,Overcast,60,2013-10-29 16:13:00
12:33 PM,41.0,32.2,71,30.43,10.0,East,6.9,-,N/A,,Overcast,80,2013-10-29 16:33:00
12:54 PM,41.5,32.9,71,30.42,10.0,East,5.8,-,N/A,,Overcast,100,2013-10-29 16:54:00
1:13 PM,41.9,33.3,71,30.41,10.0,ENE,5.8,-,N/A,,Overcast,70,2013-10-29 17:13:00
1:34 PM,42.6,33.8,71,30.39,10.0,ENE,5.8,-,N/A,,Overcast,70,2013-10-29 17:34:00
1:54 PM,43.0,32.0,65,30.38,10.0,ESE,6.9,-,N/A,,Overcast,110,2013-10-29 17:54:00
2:13 PM,42.6,32.0,66,30.38,10.0,ESE,4.6,-,N/A,,Overcast,110,2013-10-29 18:13:00
2:34 PM,42.8,32.0,66,30.37,10.0,East,4.6,-,N/A,,Overcast,80,2013-10-29 18:34:00
2:54 PM,42.8,31.6,65,30.37,10.0,East,3.5,-,N/A,,Overcast,80,2013-10-29 18:54:00
3:13 PM,42.8,31.5,64,30.36,10.0,Calm,Calm,-,N/A,,Overcast,0,2013-10-29 19:13:00
3:34 PM,42.8,32.0,66,30.36,10.0,NE,4.6,-,N/A,,Light Drizzle,50,2013-10-29 19:34:00
3:54 PM,41.2,33.3,73,30.35,10.0,NNE,3.5,-,N/A,Rain,Rain,30,2013-10-29 19:54:00
4:13 PM,39.6,34.2,81,30.35,4.0,ENE,5.8,-,N/A,Rain,Light Rain,60,2013-10-29 20:13:00
4:34 PM,39.4,35.6,86,30.35,10.0,NE,4.6,-,N/A,Rain,Light Rain,40,2013-10-29 20:34:00
4:53 PM,39.4,36.3,89,30.34,10.0,NE,3.5,-,0.01,Rain,Light Rain,50,2013-10-29 20:53:00
5:14 PM,39.6,36.7,89,30.34,10.0,ENE,3.5,-,N/A,,Overcast,60,2013-10-29 21:14:00
5:34 PM,39.9,37.0,89,30.34,10.0,Calm,Calm,-,N/A,,Overcast,0,2013-10-29 21:34:00
5:53 PM,39.6,37.2,91,30.33,10.0,ENE,3.5,-,N/A,,Overcast,70,2013-10-29 21:53:00
6:14 PM,39.6,37.2,91,30.33,10.0,Calm,Calm,-,N/A,,Overcast,0,2013-10-29 22:14:00
6:33 PM,39.4,37.6,93,30.32,10.0,Calm,Calm,-,N/A,,Overcast,0,2013-10-29 22:33:00
6:53 PM,39.4,37.8,94,30.32,10.0,Calm,Calm,-,N/A,,Mostly Cloudy,0,2013-10-29 22:53:00
7:14 PM,39.2,38.1,96,30.32,10.0,Calm,Calm,-,N/A,,Overcast,0,2013-10-29 23:14:00
7:34 PM,39.0,37.6,95,30.31,10.0,East,3.5,-,N/A,,Overcast,80,2013-10-29 23:34:00
7:53 PM,38.3,37.2,96,30.30,10.0,Calm,Calm,-,N/A,,Mostly Cloudy,0,2013-10-29 23:53:00
8:14 PM,38.5,37.4,96,30.30,10.0,East,3.5,-,N/A,,Scattered Clouds,90,2013-10-30 00:14:00
8:33 PM,38.5,37.4,96,30.30,10.0,Calm,Calm,-,N/A,,Clear,0,2013-10-30 00:33:00
8:53 PM,37.4,36.5,97,30.30,10.0,Calm,Calm,-,N/A,,Clear,0,2013-10-30 00:53:00
9:14 PM,37.0,36.5,98,30.29,10.0,Calm,Calm,-,N/A,,Clear,0,2013-10-30 01:14:00
9:33 PM,35.2,34.9,99,30.29,7.0,Calm,Calm,-,N/A,,Clear,0,2013-10-30 01:33:00
9:54 PM,35.1,34.9,99,30.27,10.0,Calm,Calm,-,N/A,,Clear,0,2013-10-30 01:54:00
10:14 PM,35.2,35.1,99,30.26,7.0,Calm,Calm,-,N/A,,Clear,0,2013-10-30 02:14:00
10:33 PM,34.5,34.5,100,30.26,7.0,Calm,Calm,-,N/A,,Clear,0,2013-10-30 02:33:00
10:54 PM,33.3,33.1,99,30.26,5.0,Calm,Calm,-,N/A,,Clear,0,2013-10-30 02:54:00
11:14 PM,33.1,33.1,100,30.24,7.0,Calm,Calm,-,N/A,,Clear,0,2013-10-30 03:14:00
11:33 PM,34.2,34.2,100,30.24,7.0,Calm,Calm,-,N/A,,Clear,0,2013-10-30 03:33:00
11:54 PM,34.9,34.7,99,30.24,10.0,Calm,Calm,-,N/A,,Scattered Clouds,0,2013-10-30 03:54:00